Location: La Pernelle
(49.6188°N, 1.2999°W)
Time: 11:31:56
(UTC+00:00)

Cosmos 1954 Rocket - Pass Details

Date: 27 October 2021
Orbit: 751 x 782 km, 74.0° (Epoch: 26 November)

Event Time Altitude Azimuth Distance (km) Brightness Sun altitude
Rises 19:53:13 0° 332° (NNW) 3,243 7.8 -29.8°
Reaches altitude 10° 19:55:39 10° 327° (NNW) 2,317 7.0 -30.2°
Maximum altitude 20:00:43 50° 254° (WSW) 983 4.7 -31.0°
Enters shadow 20:00:43 50° 253° (WSW) 983 4.7 -31.0°
